SDA566 YMIG-YSSY

Flight info

Callsign SDA566
Flight time 0h 24m
Altitude 7000
Route RIVET
Aircraft C208/L-SDFGR/C

Departure

Time 2026-04-15 07:48
Airport Mittagong Airport (YMIG)

Arrival

Time 2026-04-15 08:13
Airport Sydney Kingsford Smith International Airport (YSSY)
Time Latitude Longitude Altitude Speed Heading
2026-04-15 07:47 -34.45159 150.49136 1861 ft 0 kts 74°
2026-04-15 07:48 -34.45156 150.49150 1860 ft 15 kts 74°
2026-04-15 07:48 -34.45066 150.49530 1849 ft 75 kts 74°
2026-04-15 07:48 -34.44901 150.50267 2014 ft 89 kts 80°
2026-04-15 07:49 -34.44666 150.50993 2246 ft 96 kts 45°
2026-04-15 07:49 -34.44113 150.51026 2444 ft 86 kts 314°
2026-04-15 07:49 -34.43793 150.50456 2713 ft 84 kts 279°
2026-04-15 07:49 -34.43395 150.49850 3016 ft 105 kts 321°
2026-04-15 07:50 -34.42694 150.49511 3318 ft 113 kts 327°
2026-04-15 07:50 -34.41931 150.49138 3603 ft 126 kts 340°
2026-04-15 07:50 -34.41051 150.49391 3912 ft 142 kts 38°
2026-04-15 07:50 -34.40318 150.50232 4226 ft 149 kts 43°
2026-04-15 07:51 -34.39519 150.51096 4523 ft 158 kts 42°
2026-04-15 07:51 -34.38695 150.52002 4823 ft 161 kts 42°
2026-04-15 07:51 -34.37850 150.52916 5105 ft 164 kts 42°
2026-04-15 07:51 -34.37004 150.53840 5380 ft 168 kts 42°
2026-04-15 07:52 -34.36129 150.54793 5660 ft 171 kts 41°
2026-04-15 07:52 -34.35247 150.55752 5933 ft 171 kts 41°
2026-04-15 07:52 -34.34361 150.56712 6213 ft 170 kts 41°
2026-04-15 07:52 -34.33480 150.57674 6486 ft 171 kts 40°
2026-04-15 07:53 -34.32586 150.58643 6755 ft 172 kts 40°
2026-04-15 07:53 -34.31694 150.59614 6984 ft 174 kts 40°
2026-04-15 07:53 -34.30755 150.60633 7002 ft 187 kts 40°
2026-04-15 07:53 -34.29757 150.61711 7009 ft 196 kts 40°
2026-04-15 07:54 -34.28730 150.62826 7008 ft 201 kts 40°
2026-04-15 07:54 -34.27692 150.63951 7010 ft 204 kts 40°
2026-04-15 07:54 -34.26631 150.65101 7008 ft 204 kts 40°
2026-04-15 07:54 -34.25586 150.66234 7003 ft 200 kts 40°
2026-04-15 07:55 -34.24538 150.67367 7004 ft 203 kts 40°
2026-04-15 07:55 -34.23491 150.68502 7008 ft 204 kts 40°
2026-04-15 07:55 -34.21390 150.70777 6996 ft 201 kts 40°
2026-04-15 07:56 -34.20349 150.71901 6996 ft 200 kts 40°
2026-04-15 07:56 -34.19314 150.73026 6995 ft 199 kts 40°
2026-04-15 07:56 -34.18281 150.74141 6994 ft 199 kts 40°
2026-04-15 07:56 -34.17252 150.75256 6999 ft 198 kts 40°
2026-04-15 07:57 -34.16224 150.76364 6999 ft 199 kts 40°
2026-04-15 07:57 -34.15201 150.77470 6966 ft 202 kts 41°
2026-04-15 07:57 -34.14160 150.78596 6970 ft 199 kts 40°
2026-04-15 07:57 -34.13123 150.79718 6978 ft 200 kts 40°
2026-04-15 07:58 -34.12079 150.80844 6980 ft 202 kts 39°
2026-04-15 07:58 -34.11033 150.81976 6981 ft 202 kts 40°
2026-04-15 07:58 -34.10064 150.83208 6979 ft 204 kts 56°
2026-04-15 07:58 -34.09406 150.84702 6984 ft 204 kts 62°
2026-04-15 07:59 -34.08727 150.86207 6986 ft 204 kts 60°
2026-04-15 07:59 -34.08041 150.87713 6982 ft 205 kts 61°
2026-04-15 07:59 -34.07359 150.89223 6982 ft 205 kts 61°
2026-04-15 07:59 -34.06674 150.90743 6849 ft 207 kts 61°
2026-04-15 08:00 -34.05984 150.92272 6683 ft 206 kts 61°
2026-04-15 08:00 -34.05302 150.93781 6491 ft 203 kts 60°
2026-04-15 08:00 -34.04636 150.95249 6305 ft 196 kts 61°
2026-04-15 08:00 -34.03990 150.96678 6119 ft 192 kts 60°
2026-04-15 08:01 -34.03356 150.98084 5965 ft 188 kts 61°
2026-04-15 08:01 -34.02750 150.99425 5929 ft 184 kts 60°
2026-04-15 08:01 -34.01880 151.00583 5834 ft 188 kts 27°
2026-04-15 08:01 -34.01062 151.00905 5770 ft 187 kts
2026-04-15 08:02 -33.99331 151.00886 5635 ft 189 kts 354°
2026-04-15 08:02 -33.98017 151.00822 5521 ft 187 kts 354°
2026-04-15 08:02 -33.97140 151.00774 5438 ft 186 kts 354°
2026-04-15 08:02 -33.95846 151.00705 5313 ft 186 kts 354°
2026-04-15 08:03 -33.94572 151.00631 5189 ft 185 kts 354°
2026-04-15 08:03 -33.93282 151.00555 5065 ft 185 kts 354°
2026-04-15 08:03 -33.91998 151.00480 4943 ft 185 kts 354°
2026-04-15 08:03 -33.90712 151.00398 4815 ft 184 kts 354°
2026-04-15 08:04 -33.89438 151.00318 4688 ft 183 kts 354°
2026-04-15 08:04 -33.88167 151.00239 4561 ft 183 kts 354°
2026-04-15 08:04 -33.86896 151.00161 4434 ft 183 kts 353°
2026-04-15 08:04 -33.85620 151.00081 4307 ft 183 kts 354°
2026-04-15 08:05 -33.84344 150.99994 4179 ft 183 kts 354°
2026-04-15 08:05 -33.83068 150.99910 4021 ft 184 kts 354°
2026-04-15 08:05 -33.81781 150.99813 3826 ft 186 kts 353°
2026-04-15 08:05 -33.80501 150.99736 3631 ft 186 kts
2026-04-15 08:06 -33.79344 151.00361 3427 ft 186 kts 45°
2026-04-15 08:06 -33.78799 151.01733 3249 ft 182 kts 77°
2026-04-15 08:06 -33.78461 151.03174 3164 ft 178 kts 73°
2026-04-15 08:06 -33.77915 151.04529 3067 ft 182 kts 62°
2026-04-15 08:07 -33.77306 151.05868 2972 ft 183 kts 64°
2026-04-15 08:07 -33.76741 151.07253 2877 ft 185 kts 67°
2026-04-15 08:07 -33.76212 151.08668 2775 ft 185 kts 74°
2026-04-15 08:07 -33.76107 151.10158 2685 ft 180 kts 101°
2026-04-15 08:08 -33.76482 151.11565 2588 ft 175 kts 124°
2026-04-15 08:08 -33.77252 151.12662 2489 ft 170 kts 146°
2026-04-15 08:08 -33.78276 151.13323 2388 ft 166 kts 166°
2026-04-15 08:08 -33.79396 151.13613 2294 ft 164 kts 171°
2026-04-15 08:09 -33.80511 151.13905 2194 ft 163 kts 171°
2026-04-15 08:09 -33.81623 151.14196 2015 ft 163 kts 170°
2026-04-15 08:09 -33.82731 151.14487 1815 ft 161 kts 170°
2026-04-15 08:09 -33.83815 151.14767 1605 ft 158 kts 170°
2026-04-15 08:10 -33.84842 151.15039 1395 ft 142 kts 169°
2026-04-15 08:10 -33.85730 151.15282 1158 ft 122 kts 168°
2026-04-15 08:10 -33.86531 151.15516 1121 ft 120 kts 167°
2026-04-15 08:10 -33.87387 151.15727 1089 ft 129 kts 170°
2026-04-15 08:11 -33.88256 151.15940 1053 ft 126 kts 168°
2026-04-15 08:11 -33.89134 151.16182 926 ft 133 kts 169°
2026-04-15 08:11 -33.90013 151.16401 769 ft 117 kts 169°
2026-04-15 08:11 -33.90724 151.16590 640 ft 93 kts 168°
2026-04-15 08:12 -33.91371 151.16754 440 ft 99 kts 168°
2026-04-15 08:12 -33.92023 151.16919 262 ft 90 kts 167°
2026-04-15 08:12 -33.92622 151.17076 157 ft 89 kts 166°
2026-04-15 08:12 -33.93209 151.17228 36 ft 79 kts 164°
2026-04-15 08:13 -33.93677 151.17350 26 ft 57 kts 169°
2026-04-15 08:13 -33.93884 151.17417 25 ft 18 kts 135°
2026-04-15 08:13 -33.93891 151.17565 27 ft 19 kts 74°
2026-04-15 08:13 -33.93849 151.17737 28 ft 21 kts 73°
2026-04-15 08:14 -33.93812 151.17880 29 ft 14 kts 73°
2026-04-15 08:14 -33.93791 151.17965 29 ft 8 kts 75°
2026-04-15 08:14 -33.93779 151.18022 29 ft 9 kts 75°